Wind_Speed
17 15 12 12 9 5 1 6 8 6 5 8 8 9 8 8 11 11 10 7 11 12 17 17 23 23 21 26 19 15 7 17 22 19 9 9 11 11 21 14 6 9 10 13 13
18 17 14 14 12 8 5 4 7 5 2 6 7 8 7 6 10 11 8 7 6 13 15 15 21 20 23 19 10 9 7 5 6 18 17 10 6 6 13 21 18 8 6 13 14
26 20 18 17 14 10 7 3 7 4 0 5 6 6 6 5 9 9 9 7 7 12 14 11 21 26 25 10 4 4 2 4 3 6 19 18 14 27 23 27 21 24 18 15 15
27 28 22 19 16 13 10 7 8 6 2 4 5 5 6 5 5 10 10 6 7 10 13 17 12 29 16 4 3 9 9 2 4 10 17 14 15 21 9 24 16 20 23 20 12
28 29 22 21 18 14 13 8 9 7 4 5 6 5 5 5 7 9 10 7 7 8 10 20 24 11 8 3 2 6 8 6 8 13 16 26 29 21 14 8 16 19 23 29 26
27 26 25 23 16 17 12 12 10 8 5 6 6 5 5 4 4 9 11 8 6 7 10 4 10 10 13 2 5 5 15 9 12 11 11 18 18 18 21 17 14 16 17 19 23
22 23 26 23 26 17 13 13 9 7 5 7 6 6 5 7 5 7 10 7 7 6 9 9 16 23 9 5 14 5 19 20 3 18 22 29 15 11 7 15 12 11 15 14 19
17 18 24 23 24 26 19 14 8 7 6 7 7 6 6 8 6 9 10 9 8 9 10 17 17 14 15 4 18 15 7 8 13 23 25 17 13 10 9 8 13 16 14 19 22
14 16 20 19 22 25 23 17 12 8 7 7 8 6 6 8 8 9 11 9 9 14 20 19 14 8 6 8 22 23 18 16 16 20 29 19 17 7 9 17 16 15 18 21 20
14 14 17 18 23 28 25 21 12 10 8 6 7 6 8 9 10 9 9 11 13 20 20 12 9 15 3 5 17 23 17 19 5 13 8 6 17 3 20 17 14 19 9 22 25
11 11 15 17 20 29 26 23 16 8 5 8 8 9 8 11 11 9 11 11 17 15 18 15 6 7 24 12 9 7 13 18 11 13 10 19 12 8 9 11 27 24 20 22 28
12 11 14 17 20 27 30 23 19 14 9 9 7 11 9 9 11 12 12 14 20 20 11 1 11 2 4 5 9 9 13 13 15 5 14 8 12 5 12 17 20 30 23 26 30
14 11 11 17 18 21 31 29 22 17 14 11 11 13 11 12 13 13 14 19 19 18 5 6 8 5 1 8 8 9 9 13 8 19 29 24 13 20 20 8 18 27 7 31 31
14 14 12 15 18 18 18 29 28 26 21 15 14 13 12 14 16 15 16 14 3 5 4 9 4 11 4 3 7 10 18 14 10 20 24 10 21 14 21 32 25 30 32 33 37
15 13 14 14 19 16 17 16 16 19 14 18 15 14 12 12 11 15 15 19 16 6 15 9 10 9 15 6 7 11 7 10 16 23 33 21 29 15 18 39 15 41 36 32 36
21 18 16 16 20 17 16 17 18 16 14 18 17 13 13 16 12 13 14 23 22 16 14 7 12 10 6 6 14 6 13 20 18 20 21 30 22 4 35 36 33 36 36 34 40
23 20 18 19 19 18 15 17 20 17 14 14 14 17 15 16 13 14 18 19 16 14 7 9 10 13 16 11 15 3 11 13 25 26 18 13 21 36 27 38 32 41 38 35 38
24 20 19 20 23 21 17 18 21 14 10 16 13 15 15 16 15 17 16 12 18 12 15 9 14 3 7 17 20 10 9 12 14 12 16 23 21 28 21 27 33 32 31 34 35
24 21 20 23 26 25 21 19 18 13 15 17 15 13 12 15 17 17 14 11 13 11 12 9 13 10 16 16 14 10 10 8 11 12 15 26 27 23 30 30 30 31 33 34 36
23 24 22 25 29 28 22 24 25 26 15 18 17 15 14 15 17 16 11 15 14 14 10 6 5 5 14 12 7 6 8 8 6 10 13 22 20 25 33 33 36 39 41 39 38
25 26 22 27 33 31 22 23 24 22 19 19 17 16 11 16 15 12 13 12 22 23 22 1 14 9 11 5 11 8 9 9 10 8 6 9 19 31 29 35 36 37 38 40 38
25 27 25 29 35 30 23 27 27 21 24 21 18 17 19 12 17 14 12 18 22 31 22 12 13 16 20 12 9 6 8 8 8 10 10 9 19 28 27 28 28 33 35 34 21
26 27 26 31 35 33 27 28 25 21 21 21 18 16 23 23 22 21 18 25 25 19 29 27 12 10 17 10 4 3 9 11 11 10 14 13 22 25 25 22 26 30 30 22 18
27 26 28 28 35 39 31 25 23 23 21 23 24 22 15 17 25 21 26 29 27 23 24 20 16 13 9 4 6 10 14 12 12 9 3 13 20 24 28 28 29 32 25 22 20
23 24 33 30 32 35 36 30 23 24 23 23 25 22 20 17 26 29 24 19 20 20 20 22 17 13 6 16 12 7 7 10 12 9 9 13 17 21 25 17 33 33 21 18 18
28 32 34 38 35 36 36 32 24 26 24 20 20 24 21 21 19 16 11 14 16 19 20 19 13 13 13 7 9 8 8 10 9 8 11 14 13 16 19 25 30 31 17 15 16
23 23 27 36 37 37 36 34 31 26 27 22 23 24 18 17 17 19 19 21 15 15 16 15 15 10 7 11 17 11 5 12 13 12 10 17 20 21 23 24 27 25 15 14 15
Wind_Direction
236 237 241 250 215 236 264 326 333 1 52 71 60 71 77 76 90 93 101 106 136 122 108 91 109 114 127 107 82 67 20 17 20 353 342 91 244 347 326 121 346 51 25 16 359
228 231 237 234 236 217 235 286 313 336 51 87 71 78 87 86 93 96 103 117 113 116 103 102 116 123 102 62 26 31 46 46 17 332 317 265 48 252 1 350 10 4 357 358 328
231 235 239 232 222 222 226 262 294 302 318 115 89 86 95 104 103 100 101 116 128 115 107 90 105 86 66 55 243 66 57 69 300 273 283 306 318 22 7 337 5 358 2 318 336
232 237 241 220 226 220 228 238 277 276 223 150 113 98 107 120 103 123 115 127 139 121 107 126 106 78 56 7 299 44 310 180 274 247 273 268 298 66 333 330 349 356 341 319 356
238 239 237 233 230 226 227 221 251 258 222 174 138 112 110 135 133 127 115 126 135 123 113 132 85 43 6 229 48 345 193 354 290 266 300 323 328 360 70 338 323 319 353 336 346
243 241 230 228 223 230 235 232 225 240 223 192 160 122 117 137 144 133 121 137 139 131 110 104 101 167 97 163 308 260 271 83 269 296 264 286 338 319 315 316 319 351 348 360 338
245 244 236 231 229 233 251 228 211 229 222 203 173 140 141 151 158 134 125 134 128 102 92 100 109 134 103 188 258 313 230 156 334 327 306 325 335 316 344 8 354 341 348 354 340
250 245 236 235 227 224 235 226 213 223 216 205 185 161 159 157 148 145 133 132 118 111 87 93 101 112 121 254 265 259 23 20 18 305 314 331 309 309 324 343 339 347 350 351 348
252 242 233 229 218 213 219 222 218 216 204 199 194 177 173 168 155 147 141 130 96 101 109 104 101 79 34 277 49 16 349 18 6 339 338 338 322 344 300 317 330 328 328 346 345
250 242 231 224 212 208 216 223 211 209 196 182 208 198 190 178 162 148 132 117 97 120 131 113 54 355 346 326 21 7 312 49 346 350 318 336 333 33 324 304 357 333 336 342 339
250 241 228 222 215 209 216 211 224 234 217 202 212 212 204 176 165 148 141 123 108 131 112 41 6 28 11 20 33 319 265 279 268 312 286 280 303 244 309 329 339 337 337 342 346
250 238 233 216 216 215 214 216 215 228 254 223 210 217 195 188 169 156 146 124 120 99 58 132 276 319 249 281 238 235 317 304 314 251 285 203 288 263 262 59 343 344 349 354 350
235 241 235 217 212 217 220 221 223 230 259 252 223 222 203 187 169 159 150 122 99 80 93 258 283 257 291 271 311 253 303 338 349 301 303 268 229 329 345 281 43 352 356 355 349
229 230 233 223 214 216 224 227 230 237 253 239 224 215 213 202 174 162 158 122 146 100 276 261 181 300 252 259 257 347 298 339 279 262 272 298 339 330 331 339 358 354 346 351 349
230 228 227 229 215 219 214 215 219 220 226 223 224 212 213 211 198 173 181 159 142 222 208 206 266 247 241 262 258 290 334 294 310 296 322 307 332 265 356 340 6 353 343 334 340
239 236 227 226 209 207 206 209 203 193 225 242 227 216 217 219 188 184 173 153 165 178 234 203 210 263 243 308 283 294 318 331 300 352 338 359 329 138 346 334 332 343 345 340 334
239 236 229 223 207 207 207 198 186 190 223 247 228 217 211 212 194 204 188 184 166 150 181 220 251 248 263 269 298 310 349 317 332 1 347 54 11 329 326 344 341 335 338 337 332
240 236 221 215 205 202 202 192 195 176 255 229 220 209 211 211 196 203 203 190 153 155 179 244 199 232 248 313 305 339 318 310 302 341 299 313 321 291 331 339 332 331 332 333 330
240 238 217 210 203 201 204 192 172 184 205 206 195 199 203 212 199 209 200 194 206 192 226 229 247 257 290 303 308 295 276 322 328 20 341 330 342 315 333 327 333 331 337 332 326
240 237 218 209 203 204 205 196 199 211 222 204 188 190 196 214 210 206 197 190 217 189 218 269 305 283 302 315 311 317 334 350 337 334 350 332 326 324 318 327 340 332 335 333 328
235 229 214 208 202 201 204 201 216 227 210 204 200 183 197 224 199 198 195 197 195 211 205 285 216 258 330 273 314 321 300 337 328 337 350 335 303 298 310 315 330 328 330 331 328
225 222 213 206 200 198 199 208 214 211 206 207 209 198 198 201 169 180 192 226 239 206 207 222 223 213 242 220 266 316 288 316 326 319 290 265 301 308 313 319 333 331 334 338 346
217 218 208 205 199 196 205 208 218 205 207 203 199 218 216 206 176 169 214 228 239 214 202 218 224 209 276 291 5 71 319 315 328 332 342 336 300 305 321 335 334 332 335 348 344
213 213 203 205 202 198 200 215 212 207 208 202 199 213 231 213 182 170 225 231 240 229 201 206 204 213 313 31 292 302 321 334 343 358 324 293 310 310 332 333 340 341 338 343 347
206 203 200 203 205 207 211 206 207 206 206 200 201 208 223 214 195 191 218 240 233 223 210 217 211 194 235 257 285 261 269 263 295 322 321 287 283 331 318 320 325 333 331 335 345
208 205 199 200 203 208 212 215 209 201 200 203 203 206 218 215 224 204 241 251 233 219 217 217 194 201 217 296 282 294 270 300 314 330 309 321 315 311 309 311 330 331 317 332 342
210 210 207 208 207 206 211 213 211 201 210 209 206 213 225 214 205 187 195 251 242 224 217 213 210 241 238 226 269 304 298 259 311 315 320 312 327 332 326 331 337 337 316 328 337
Height
5912 5913 5915 5917 5917 5918 5919 5920 5920 5920 5920 5919 5919 5918 5918 5918 5919 5919 5919 5921 5920 5921 5922 5923 5924 5926 5927 5926 5928 5933 5932 5928 5931 5928 5927 5929 5915 5919 5914 5906 5919 5911 5910 5908 5903
5909 5911 5913 5915 5916 5917 5919 5919 5920 5921 5921 5920 5920 5919 5919 5919 5920 5920 5921 5922 5923 5923 5923 5924 5925 5929 5927 5930 5938 5939 5938 5943 5940 5930 5924 5913 5916 5912 5913 5911 5912 5913 5909 5904 5900
5907 5909 5912 5914 5915 5916 5918 5919 5920 5921 5921 5921 5920 5920 5920 5920 5922 5922 5923 5924 5925 5925 5925 5928 5929 5929 5931 5941 5943 5943 5943 5944 5941 5934 5920 5921 5913 5910 5911 5907 5907 5906 5904 5901 5903
5904 5907 5910 5912 5913 5915 5917 5918 5920 5921 5921 5921 5920 5921 5921 5921 5923 5922 5923 5925 5926 5926 5927 5930 5930 5929 5935 5945 5942 5942 5941 5941 5941 5931 5925 5925 5919 5903 5921 5907 5908 5904 5905 5902 5897
5901 5904 5907 5910 5912 5914 5916 5917 5919 5920 5921 5921 5920 5921 5921 5922 5923 5923 5924 5926 5927 5928 5928 5930 5928 5935 5939 5946 5943 5944 5936 5941 5935 5931 5926 5923 5918 5902 5913 5912 5911 5912 5910 5901 5896
5897 5900 5904 5908 5911 5913 5914 5916 5917 5918 5920 5920 5920 5921 5922 5923 5922 5923 5925 5927 5929 5929 5929 5931 5930 5934 5940 5944 5943 5934 5935 5938 5927 5927 5927 5926 5924 5921 5917 5915 5913 5913 5910 5906 5901
5894 5897 5901 5905 5908 5911 5914 5915 5915 5916 5918 5920 5920 5920 5922 5923 5923 5923 5925 5928 5930 5931 5931 5933 5934 5934 5939 5938 5937 5939 5934 5934 5918 5926 5925 5923 5922 5919 5918 5914 5913 5910 5908 5906 5904
5892 5894 5897 5900 5905 5909 5912 5914 5914 5915 5917 5919 5920 5920 5921 5922 5923 5925 5926 5929 5932 5932 5934 5934 5934 5936 5937 5941 5938 5936 5932 5929 5930 5932 5925 5925 5924 5920 5917 5912 5911 5908 5906 5904 5900
5890 5892 5894 5898 5901 5906 5909 5912 5913 5913 5915 5917 5920 5920 5921 5922 5923 5925 5926 5929 5933 5934 5934 5935 5937 5938 5938 5936 5937 5934 5931 5930 5931 5930 5922 5921 5921 5919 5913 5910 5908 5906 5903 5902 5899
5888 5890 5892 5894 5899 5902 5906 5910 5911 5912 5914 5916 5919 5922 5921 5922 5923 5925 5927 5928 5933 5934 5935 5937 5937 5938 5937 5938 5938 5939 5928 5928 5939 5932 5929 5922 5920 5918 5912 5903 5903 5904 5906 5899 5896
5885 5886 5889 5892 5895 5899 5904 5907 5911 5913 5913 5915 5918 5919 5920 5921 5923 5925 5927 5930 5934 5936 5935 5938 5942 5943 5935 5942 5945 5948 5944 5941 5937 5935 5931 5924 5921 5920 5911 5891 5900 5903 5901 5898 5893
5883 5885 5887 5890 5893 5896 5901 5905 5907 5911 5913 5915 5916 5918 5920 5921 5922 5924 5927 5930 5934 5934 5936 5941 5946 5947 5946 5945 5943 5942 5938 5938 5935 5930 5930 5911 5912 5916 5917 5885 5908 5899 5890 5889 5889
5881 5884 5886 5888 5890 5894 5898 5903 5906 5908 5912 5914 5915 5918 5920 5921 5922 5924 5927 5930 5934 5935 5941 5947 5945 5944 5944 5945 5943 5940 5939 5938 5938 5931 5926 5914 5901 5913 5910 5912 5897 5904 5872 5889 5887
5879 5882 5885 5886 5890 5892 5895 5899 5903 5906 5910 5913 5914 5916 5919 5920 5921 5924 5926 5930 5936 5940 5947 5945 5945 5943 5943 5942 5942 5944 5937 5937 5930 5928 5924 5918 5914 5910 5909 5906 5896 5905 5896 5888 5885
5877 5880 5883 5885 5887 5891 5894 5898 5901 5905 5908 5910 5912 5915 5917 5921 5923 5923 5926 5927 5933 5944 5945 5947 5945 5943 5940 5938 5938 5939 5936 5932 5927 5926 5923 5915 5906 5899 5904 5901 5894 5896 5893 5890 5883
5873 5878 5881 5883 5885 5889 5892 5896 5900 5905 5904 5907 5911 5914 5916 5918 5921 5923 5926 5928 5931 5936 5940 5943 5943 5939 5937 5938 5935 5937 5932 5932 5927 5920 5916 5911 5905 5885 5901 5906 5900 5897 5893 5886 5882
5869 5874 5877 5879 5883 5887 5890 5894 5899 5902 5904 5906 5908 5912 5915 5917 5920 5923 5925 5927 5931 5935 5940 5942 5941 5939 5938 5938 5934 5934 5933 5932 5926 5922 5906 5911 5905 5907 5908 5903 5898 5895 5891 5888 5883
5865 5869 5873 5876 5879 5884 5889 5893 5898 5902 5904 5905 5907 5910 5913 5916 5918 5923 5924 5927 5929 5934 5935 5941 5938 5938 5936 5936 5933 5931 5932 5930 5928 5926 5922 5920 5920 5909 5912 5910 5908 5903 5895 5889 5883
5861 5864 5868 5872 5876 5881 5887 5892 5896 5901 5901 5903 5907 5910 5912 5914 5918 5920 5923 5927 5931 5933 5936 5929 5934 5934 5934 5933 5932 5930 5930 5928 5927 5927 5921 5918 5914 5909 5909 5908 5905 5898 5893 5888 5882
5857 5859 5864 5868 5873 5878 5884 5887 5889 5894 5899 5901 5905 5909 5913 5914 5916 5918 5922 5926 5931 5933 5932 5924 5934 5934 5932 5932 5931 5930 5928 5928 5927 5927 5926 5920 5911 5908 5908 5906 5901 5893 5887 5883 5878
5852 5853 5860 5864 5869 5876 5882 5886 5889 5892 5897 5900 5902 5907 5912 5912 5914 5917 5923 5926 5927 5929 5931 5930 5931 5934 5932 5931 5930 5930 5930 5926 5926 5925 5925 5924 5916 5910 5908 5903 5901 5894 5888 5880 5873
5846 5849 5854 5859 5866 5873 5877 5881 5883 5889 5893 5897 5901 5903 5907 5911 5913 5918 5924 5924 5921 5926 5927 5929 5928 5932 5924 5923 5926 5926 5926 5925 5924 5923 5921 5921 5916 5911 5908 5904 5900 5893 5887 5880 5873
5840 5845 5851 5855 5862 5870 5873 5877 5881 5887 5890 5895 5898 5901 5904 5907 5912 5915 5918 5919 5918 5922 5923 5924 5927 5928 5924 5929 5926 5925 5925 5923 5921 5921 5919 5917 5914 5909 5906 5902 5898 5892 5884 5880 5874
5837 5842 5847 5853 5858 5861 5869 5875 5880 5884 5888 5892 5895 5898 5903 5905 5908 5913 5912 5914 5915 5917 5919 5921 5923 5924 5925 5925 5925 5925 5922 5921 5919 5918 5917 5915 5909 5905 5900 5895 5894 5888 5883 5878 5873
5833 5838 5842 5850 5856 5862 5867 5871 5877 5881 5886 5889 5893 5897 5900 5903 5906 5908 5909 5910 5912 5913 5916 5918 5920 5922 5926 5923 5924 5923 5922 5921 5917 5917 5916 5914 5908 5903 5901 5896 5892 5886 5881 5877 5872
5826 5829 5836 5844 5850 5857 5863 5869 5875 5879 5882 5887 5891 5894 5896 5900 5903 5906 5909 5908 5909 5911 5912 5915 5918 5919 5920 5922 5921 5919 5919 5916 5915 5914 5912 5909 5906 5903 5900 5894 5890 5883 5878 5875 5871
5824 5829 5835 5839 5846 5852 5859 5865 5871 5875 5878 5883 5888 5891 5894 5897 5900 5902 5904 5906 5907 5909 5910 5912 5915 5916 5917 5917 5918 5917 5916 5916 5913 5912 5911 5906 5902 5899 5894 5890 5886 5881 5876 5872 5869